Flag for U.S.A. Weather past 2 weeks in Chesapeake, Virginia, U.S.A.

63 °F

Partly cloudy.

Feels Like: 63 °F
Forecast: 59 / 81 °F
Wind: No wind

Location: Chesapeake Municipal Airport

Current Time: Oct 9, 2015 at 2:58:30 AM

Latest Report: Oct 9, 2015 at 2:15 AM

Visibility: 10 mi

Pressure: 30.11 "Hg

Humidity: 94%

Dew point: 61 °F

Location of ChesapeakeLocation

Historic Weather in Chesapeake — Graph


Chesapeake temperature yesterday

Maximum temperature yesterday: 81 °F (at 12:35 PM)
Minimum temperature yesterday: 55 °F (at 5:15 AM)
Average temperature yesterday: 67 °F

Past Weeks' High & Low Weather Summary

High86 °F (Sep 29, 11:55 AM)100% (Sep 25, 10:15 AM)30.23 "Hg (Sep 25, 10:15 AM)
Low54 °F (Oct 7, 2:55 AM)45% (Oct 8, 12:55 PM)29.74 "Hg (Sep 30, 5:15 AM)
Average72 °F86%30.01 "Hg
* Reported Sep 24 1:15 AM — Oct 9 1:35 AM, Chesapeake, Weather by CustomWeather, © 2015

Note: Actual official high and low records may vary slightly from our data, if they occured in-between our weather recording intervals... More about our weather records


Chesapeake weather history for previous 24 hours

Time TempWeatherWind HumidityBarometerVisibility
1:35 AM
Fri, Oct 9
63 °FPassing clouds.No wind100%30.11 "Hg10 mi
1:15 AM63 °FPassing clouds.No wind100%30.11 "Hg10 mi
12:55 AM63 °FClear.No wind94%30.12 "Hg10 mi
12:15 AM64 °FPassing clouds.No wind94%30.12 "Hg10 mi
11:15 PM
Thu, Oct 8
63 °FClear.No wind94%30.14 "Hg10 mi
10:55 PM64 °FClear.No wind94%30.14 "Hg10 mi
10:35 PM64 °FClear.No wind94%30.14 "Hg10 mi
10:15 PM64 °FClear.No wind94%30.13 "Hg10 mi
9:55 PM64 °FClear.No wind94%30.13 "Hg10 mi
9:35 PM64 °FClear.No wind94%30.13 "Hg10 mi
9:15 PM64 °FClear.No wind88%30.12 "Hg10 mi
8:55 PM66 °FClear.No wind88%30.12 "Hg10 mi
8:35 PM66 °FClear.No wind83%30.12 "Hg10 mi
8:15 PM66 °FClear.No wind83%30.12 "Hg10 mi
7:55 PM70 °FPassing clouds.6 mph73%30.12 "Hg10 mi
7:35 PM68 °FScattered clouds.3 mph78%30.12 "Hg10 mi
7:15 PM70 °FSunny.3 mph73%30.12 "Hg10 mi
6:55 PM70 °FSunny.3 mph78%30.11 "Hg10 mi
6:35 PM72 °FSunny.3 mph73%30.11 "Hg10 mi
5:15 PM75 °FScattered clouds.6 mph65%30.11 "Hg10 mi
4:55 PM77 °FScattered clouds.8 mph57%30.11 "Hg10 mi
4:35 PM77 °FScattered clouds.6 mph61%30.11 "Hg10 mi
4:15 PM81 °FPartly sunny.8 mph51%30.10 "Hg7 mi
3:55 PM81 °FMostly cloudy.No wind48%30.10 "Hg10 mi
3:35 PM81 °FBroken clouds.No wind48%30.09 "Hg10 mi
3:15 PM81 °FScattered clouds.No wind48%30.10 "Hg10 mi
2:55 PM81 °FScattered clouds.No wind48%30.10 "Hg10 mi
2:15 PM79 °FScattered clouds.No wind48%30.11 "Hg10 mi
1:55 PM81 °FScattered clouds.No wind45%30.12 "Hg10 mi
1:35 PM81 °FSunny.No wind45%30.13 "Hg10 mi
1:15 PM81 °FSunny.No wind48%30.14 "Hg10 mi
12:55 PM81 °FSunny.No wind45%30.14 "Hg10 mi
12:35 PM81 °FSunny.No wind48%30.14 "Hg10 mi
12:15 PM79 °FSunny.No wind51%30.15 "Hg10 mi
11:55 AM79 °FSunny.No wind51%30.15 "Hg10 mi
11:35 AM79 °FSunny.3 mph51%30.15 "Hg10 mi
11:15 AM75 °FSunny.No wind61%30.15 "Hg10 mi
10:55 AM75 °FSunny.No wind65%30.15 "Hg10 mi
10:35 AM73 °FSunny.No wind69%30.15 "Hg10 mi
10:15 AM73 °FSunny.No wind74%30.16 "Hg10 mi
9:55 AM72 °FSunny.No wind78%30.15 "Hg10 mi
9:35 AM70 °FSunny.No wind83%30.15 "Hg10 mi
9:15 AM66 °FSunny.No wind88%30.14 "Hg10 mi
8:55 AM64 °FSunny.No wind94%30.14 "Hg10 mi
8:35 AM61 °FSunny.No wind100%30.14 "Hg10 mi
8:15 AM59 °FFog.No wind100%30.13 "Hg4 mi
7:55 AM57 °FFog.No wind100%30.12 "Hg3 mi
7:15 AM55 °FFog.No wind100%30.12 "Hg2 mi
6:55 AM55 °FFog.No wind100%30.12 "Hg5 mi
6:35 AM55 °FClear.No wind100%30.11 "Hg10 mi
6:15 AM55 °FClear.No wind100%30.11 "Hg10 mi
5:55 AM57 °FClear.No wind100%30.10 "Hg7 mi
5:35 AM57 °FFog.No wind94%30.10 "Hg2 mi
5:15 AM55 °FFog.No wind100%30.09 "Hg4 mi
4:55 AM57 °FClear.No wind94%30.09 "Hg10 mi
4:35 AM57 °FClear.No wind100%30.09 "Hg10 mi
4:15 AM57 °FFog.No wind100%30.08 "Hg5 mi
3:55 AM57 °FFog.No wind100%30.08 "Hg3 mi
3:35 AM57 °FClear.No wind100%30.09 "Hg10 mi
3:15 AM59 °FClear.No wind94%30.09 "Hg10 mi
2:55 AM57 °FClear.No wind100%30.09 "Hg10 mi
2:15 AM57 °FClear.No wind100%30.09 "Hg10 mi
Weather by CustomWeather, © 2015

See weather overviewHow to use our weather pages